Location: Aufkirchen
(47.9603°N, 11.3653°E)
Time: 23:19:41
(UTC+01:00)

Vanguard 2 Rocket - All Passes

Search period start: 05 December 2020 00:00
Search period end: 15 December 2020 00:00
Orbit: 553 x 3326 km, 32.9° (Epoch: 05 December)

Date Brightness Start Highest point End Pass type
(mag) Time Alt. Az. Time Alt. Az. Time Alt. Az.
05 Dec - 03:39:33 10° SSE 03:49:01 18° SE 03:59:43 10° E visible
05 Dec - 05:47:23 10° SSW 06:03:05 38° SSE 06:20:12 10° E visible
05 Dec - 08:00:48 10° WSW 08:19:15 50° S 08:36:03 10° ESE daylight
05 Dec - 10:17:19 10° W 10:35:21 43° SSW 10:49:15 10° SE daylight
05 Dec - 12:36:57 10° W 12:49:12 23° SW 12:58:38 10° S daylight
06 Dec - 02:47:45 10° SE 02:49:01 10° SE 02:50:19 10° ESE visible
06 Dec - 04:48:15 10° SSW 05:02:01 32° SE 05:18:04 10° E visible
06 Dec - 07:00:04 10° SW 07:17:32 48° SSE 07:35:15 10° ESE visible
06 Dec - 09:15:25 10° WSW 09:34:02 48° SSW 09:49:37 10° SE daylight
06 Dec - 11:33:33 10° W 11:48:59 31° SW 12:00:47 10° SSE daylight
07 Dec - 03:50:01 10° S 04:01:23 24° SE 04:15:05 10° E visible
07 Dec - 05:59:57 10° SW 06:15:58 44° SSE 06:33:56 10° E visible
07 Dec - 08:14:02 10° WSW 08:32:24 50° S 08:49:27 10° ESE daylight
07 Dec - 10:30:56 10° W 10:48:15 38° SSW 11:02:03 10° SSE daylight
07 Dec - 12:52:17 10° W 13:01:35 16° SW 13:09:21 10° SSW daylight
08 Dec - 02:53:14 10° SSE 03:01:15 16° SE 03:10:41 10° E visible
08 Dec - 05:00:28 10° SSW 05:14:43 38° SSE 05:32:02 10° E visible
08 Dec - 07:13:12 10° WSW 07:30:39 50° S 07:48:43 10° ESE visible
08 Dec - 09:28:55 10° W 09:47:03 44° SSW 10:02:39 10° SE daylight
08 Dec - 11:47:52 10° W 12:01:31 24° SW 12:12:34 10° S daylight
09 Dec - 04:01:40 10° SSW 04:13:54 30° SE 04:29:29 10° E visible
09 Dec - 06:12:55 10° SW 06:28:58 47° SSE 06:47:28 10° ESE visible
09 Dec - 08:27:27 10° WSW 08:45:30 48° S 09:02:37 10° SE daylight
09 Dec - 10:44:50 10° W 11:00:58 32° SW 11:14:22 10° SSE daylight
09 Dec - 13:11:46 10° WSW 13:13:49 10° SW 13:15:47 10° SW daylight
10 Dec - 03:03:47 10° S 03:13:36 23° SE 03:26:06 10° E visible
10 Dec - 05:13:11 10° SW 05:27:35 43° SSE 05:45:41 10° E visible
10 Dec - 07:26:32 10° WSW 07:43:46 50° S 08:02:00 10° ESE daylight
10 Dec - 09:42:36 10° W 09:59:56 39° SSW 10:15:17 10° SE daylight
10 Dec - 12:03:07 10° W 12:13:53 18° SW 12:23:13 10° SSW daylight
11 Dec - 02:07:33 10° SSE 02:13:47 14° SE 02:21:11 10° ESE visible
11 Dec - 04:14:03 10° SSW 04:26:36 36° SSE 04:43:21 10° E visible
11 Dec - 06:26:08 10° WSW 06:42:05 49° S 07:00:50 10° ESE visible
11 Dec - 08:41:02 10° W 08:58:31 44° SSW 09:15:30 10° SE daylight
11 Dec - 10:59:11 10° W 11:13:30 25° SW 11:25:59 10° S daylight
12 Dec - 03:15:36 10° SSW 03:26:08 29° SE 03:40:28 10° E visible
12 Dec - 05:26:15 10° SW 05:40:36 46° SSE 05:59:08 10° ESE visible
12 Dec - 07:40:02 10° WSW 07:56:54 48° S 08:15:03 10° SE daylight
12 Dec - 09:56:34 10° W 10:12:40 32° SSW 10:27:27 10° SSE daylight
12 Dec - 12:21:15 10° WSW 12:26:08 11° SW 12:30:45 10° SW daylight
13 Dec - 02:18:03 10° S 02:26:10 20° SE 02:36:50 10° E visible
13 Dec - 04:26:53 10° SW 04:39:30 41° SSE 04:56:57 10° E visible
13 Dec - 06:39:34 10° WSW 06:55:15 49° S 07:14:01 10° ESE visible
13 Dec - 08:54:48 10° W 09:11:27 39° SSW 09:28:00 10° SE daylight
13 Dec - 11:14:27 10° W 11:25:55 19° SW 11:36:25 10° S daylight
14 Dec - 01:22:42 10° SSE 01:26:39 12° SE 01:31:13 10° ESE visible
14 Dec - 03:28:05 10° SSW 03:38:52 34° SSE 03:54:19 10° E visible
14 Dec - 05:39:35 10° WSW 05:53:44 48° S 06:12:25 10° ESE visible
14 Dec - 07:53:42 10° W 08:09:58 43° SSW 08:27:49 10° SE daylight
14 Dec - 10:11:00 10° W 10:25:17 26° SW 10:38:50 10° S daylight
